• en Belgique
  • Liste des pays
  • À 7 jours
  • Température de l'eau
  • Carte satellitaire
  • Carte météo
  • Widgets météo
  • user-avatar
    Se connecter

    Météo par heure à Krasnyy Yar

    Ce jour, 24 Octobre, Mercredi

    Heure Température Précipitation Vent Pression Humidité
    00:00 +5°C° 0.1 mm 4 m/s 742 mmHg 84%
    01:00 +5°C° 0.1 mm 4 m/s 742 mmHg 84%
    02:00 +5°C° 0.1 mm 4 m/s 742 mmHg 83%
    03:00 +5°C° 0.1 mm 4 m/s 742 mmHg 83%
    04:00 +5°C° 0.1 mm 4 m/s 742 mmHg 82%
    05:00 +5°C° 0 mm 4 m/s 742 mmHg 83%
    06:00 +4°C° 0 mm 3 m/s 742 mmHg 84%
    07:00 +4°C° 0 mm 3 m/s 741 mmHg 85%
    08:00 +4°C° 0 mm 3 m/s 742 mmHg 83%
    09:00 +5°C° 0 mm 3 m/s 742 mmHg 81%
    10:00 +7°C° 0 mm 3 m/s 742 mmHg 79%
    11:00 +7°C° 0 mm 3 m/s 742 mmHg 78%
    12:00 +8°C° 0 mm 3 m/s 742 mmHg 77%
    13:00 +8°C° 0 mm 3 m/s 742 mmHg 76%
    14:00 +8°C° 0 mm 3 m/s 742 mmHg 79%
    15:00 +7°C° 0 mm 3 m/s 742 mmHg 82%
    16:00 +7°C° 0 mm 2 m/s 742 mmHg 85%
    17:00 +6°C° 0 mm 2 m/s 742 mmHg 88%
    18:00 +6°C° 0 mm 2 m/s 743 mmHg 90%
    19:00 +5°C° 0 mm 2 m/s 743 mmHg 93%
    20:00 +5°C° 0 mm 2 m/s 743 mmHg 94%
    21:00 +5°C° 0 mm 2 m/s 743 mmHg 94%
    22:00 +6°C° 0 mm 2 m/s 743 mmHg 94%
    23:00 +5°C° 0 mm 2 m/s 743 mmHg 95%

    Demain, 25 Octobre, Jeudi

    Heure Température Précipitation Vent Pression Humidité
    00:00 +5°C° 0 mm 2 m/s 743 mmHg 95%
    01:00 +5°C° 0 mm 2 m/s 743 mmHg 96%
    02:00 +5°C° 0 mm 2 m/s 744 mmHg 96%
    03:00 +5°C° 0 mm 2 m/s 744 mmHg 96%
    04:00 +6°C° 0 mm 2 m/s 744 mmHg 96%
    05:00 +6°C° 0 mm 2 m/s 744 mmHg 95%
    06:00 +6°C° 0 mm 2 m/s 744 mmHg 95%
    07:00 +5°C° 0 mm 3 m/s 744 mmHg 95%
    08:00 +5°C° 0 mm 3 m/s 744 mmHg 91%
    09:00 +7°C° 0 mm 3 m/s 744 mmHg 87%
    10:00 +8°C° 0 mm 3 m/s 744 mmHg 83%
    11:00 +8°C° 0 mm 3 m/s 744 mmHg 83%
    12:00 +9°C° 0 mm 3 m/s 744 mmHg 82%
    13:00 +9°C° 0 mm 3 m/s 743 mmHg 82%
    14:00 +9°C° 0.5 mm 3 m/s 743 mmHg 84%
    15:00 +9°C° 0.5 mm 3 m/s 743 mmHg 86%
    16:00 +8°C° 0.5 mm 4 m/s 743 mmHg 89%
    17:00 +8°C° 0.2 mm 4 m/s 742 mmHg 88%
    18:00 +8°C° 0.2 mm 4 m/s 742 mmHg 87%
    19:00 +8°C° 0.2 mm 4 m/s 742 mmHg 86%
    20:00 +8°C° 0.1 mm 4 m/s 742 mmHg 86%
    21:00 +8°C° 0.1 mm 4 m/s 741 mmHg 85%
    22:00 +8°C° 0.1 mm 4 m/s 741 mmHg 85%
    23:00 +7°C° 0 mm 4 m/s 741 mmHg 85%

    Après-demain, 26 Octobre, Vendredi

    Heure Température Précipitation Vent Pression Humidité
    00:00 +8°C° 0 mm 3 m/s 741 mmHg 86%
    01:00 +8°C° 0 mm 3 m/s 740 mmHg 86%
    02:00 +8°C° 0 mm 3 m/s 740 mmHg 84%
    03:00 +7°C° 0 mm 4 m/s 739 mmHg 81%
    04:00 +7°C° 0 mm 4 m/s 739 mmHg 79%
    05:00 +7°C° 0 mm 4 m/s 739 mmHg 77%
    06:00 +8°C° 0 mm 4 m/s 738 mmHg 76%
    07:00 +8°C° 0 mm 4 m/s 738 mmHg 74%
    08:00 +8°C° 0.3 mm 4 m/s 737 mmHg 74%
    09:00 +8°C° 0.3 mm 5 m/s 737 mmHg 73%
    10:00 +9°C° 0.3 mm 5 m/s 736 mmHg 73%
    11:00 +9°C° 0.1 mm 5 m/s 736 mmHg 71%
    12:00 +10°C° 0.1 mm 5 m/s 736 mmHg 68%
    13:00 +12°C° 0.1 mm 5 m/s 736 mmHg 66%
    14:00 +10°C° 0.1 mm 5 m/s 736 mmHg 69%
    15:00 +11°C° 0.1 mm 4 m/s 736 mmHg 73%
    16:00 +10°C° 0.1 mm 4 m/s 736 mmHg 77%
    17:00 +8°C° 0.2 mm 4 m/s 737 mmHg 79%
    18:00 +9°C° 0.2 mm 3 m/s 737 mmHg 81%
    19:00 +8°C° 0.2 mm 3 m/s 737 mmHg 84%
    20:00 +7°C° 0 mm 3 m/s 737 mmHg 83%
    21:00 +7°C° 0 mm 3 m/s 737 mmHg 82%
    22:00 +5°C° 0 mm 3 m/s 737 mmHg 81%
    23:00 +5°C° 0 mm 3 m/s 737 mmHg 81%

    27 Octobre, Samedi

    Heure Température Précipitation Vent Pression Humidité
    00:00 +5°C° 0 mm 3 m/s 737 mmHg 81%
    01:00 +4°C° 0 mm 3 m/s 737 mmHg 81%
    02:00 +4°C° 0 mm 3 m/s 738 mmHg 81%
    03:00 +3°C° 0 mm 3 m/s 738 mmHg 81%
    04:00 +3°C° 0 mm 3 m/s 738 mmHg 82%
    05:00 +2°C° 0 mm 3 m/s 739 mmHg 80%
    06:00 +2°C° 0 mm 3 m/s 739 mmHg 79%
    07:00 0°C° 0 mm 4 m/s 739 mmHg 77%
    08:00 0°C° 0 mm 4 m/s 740 mmHg 74%
    09:00 +1°C° 0 mm 5 m/s 740 mmHg 70%
    10:00 +1°C° 0 mm 5 m/s 740 mmHg 67%
    11:00 +1°C° 0 mm 5 m/s 740 mmHg 65%
    12:00 +2°C° 0 mm 5 m/s 740 mmHg 64%
    13:00 +2°C° 0 mm 5 m/s 741 mmHg 62%
    14:00 +2°C° 0 mm 5 m/s 741 mmHg 64%
    15:00 +3°C° 0 mm 4 m/s 741 mmHg 66%
    16:00 +1°C° 0 mm 4 m/s 741 mmHg 68%
    17:00 +1°C° 0 mm 4 m/s 741 mmHg 69%
    18:00 +1°C° 0 mm 4 m/s 741 mmHg 70%
    19:00 +1°C° 0 mm 4 m/s 742 mmHg 71%
    20:00 +1°C° 0 mm 4 m/s 741 mmHg 72%
    21:00 0°C° 0 mm 4 m/s 741 mmHg 73%
    22:00 0°C° 0 mm 4 m/s 741 mmHg 74%
    23:00 0°C° 0 mm 4 m/s 741 mmHg 75%

    28 Octobre, Dimanche

    Heure Température Précipitation Vent Pression Humidité
    00:00 0°C° 0 mm 3 m/s 742 mmHg 76%
    01:00 0°C° 0 mm 3 m/s 742 mmHg 78%
    02:00 0°C° 0 mm 3 m/s 742 mmHg 78%
    03:00 0°C° 0 mm 3 m/s 742 mmHg 78%
    04:00 0°C° 0 mm 3 m/s 742 mmHg 79%
    05:00 -1°C° 0 mm 3 m/s 742 mmHg 80%
    06:00 -1°C° 0 mm 3 m/s 742 mmHg 81%
    07:00 -1°C° 0 mm 3 m/s 742 mmHg 82%
    08:00 0°C° 0 mm 3 m/s 741 mmHg 79%
    09:00 +1°C° 0 mm 3 m/s 741 mmHg 76%
    10:00 0°C° 0 mm 4 m/s 741 mmHg 73%
    11:00 +2°C° 0 mm 3 m/s 740 mmHg 72%
    12:00 +2°C° 0 mm 3 m/s 740 mmHg 72%
    13:00 +2°C° 0 mm 3 m/s 739 mmHg 72%
    14:00 +2°C° 0.2 mm 3 m/s 739 mmHg 75%
    15:00 +2°C° 0.2 mm 3 m/s 739 mmHg 79%
    16:00 +2°C° 0.2 mm 2 m/s 738 mmHg 82%
    17:00 +2°C° 0.3 mm 2 m/s 738 mmHg 85%
    18:00 +3°C° 0.3 mm 1 m/s 738 mmHg 87%
    19:00 +3°C° 0.3 mm 1 m/s 738 mmHg 90%
    20:00 +2°C° 0.1 mm 1 m/s 738 mmHg 91%
    21:00 +2°C° 0.1 mm 1 m/s 738 mmHg 93%
    22:00 +2°C° 0.1 mm 1 m/s 738 mmHg 94%
    23:00 +2°C° 0.1 mm 1 m/s 738 mmHg 94%

    29 Octobre, Lundi

    Heure Température Précipitation Vent Pression Humidité
    00:00 +2°C° 0.1 mm 1 m/s 739 mmHg 94%
    01:00 +1°C° 0.1 mm 2 m/s 739 mmHg 93%
    02:00 +1°C° 0 mm 2 m/s 740 mmHg 92%
    03:00 +1°C° 0 mm 2 m/s 741 mmHg 90%
    04:00 0°C° 0 mm 3 m/s 742 mmHg 88%
    05:00 -1°C° 0.1 mm 3 m/s 742 mmHg 85%
    06:00 -1°C° 0.1 mm 3 m/s 743 mmHg 82%
    07:00 -1°C° 0.1 mm 3 m/s 744 mmHg 79%
    08:00 -1°C° 0 mm 4 m/s 744 mmHg 76%
    09:00 -1°C° 0 mm 4 m/s 745 mmHg 73%
    10:00 0°C° 0 mm 4 m/s 746 mmHg 70%
    11:00 +1°C° 0 mm 4 m/s 746 mmHg 68%
    12:00 +1°C° 0 mm 4 m/s 747 mmHg 67%
    13:00 +3°C° 0 mm 4 m/s 748 mmHg 65%
    14:00 +1°C° 0.1 mm 4 m/s 749 mmHg 67%
    15:00 +1°C° 0.1 mm 3 m/s 749 mmHg 69%
    16:00 0°C° 0.1 mm 3 m/s 750 mmHg 71%
    17:00 -1°C° 0 mm 3 m/s 751 mmHg 72%
    18:00 -2°C° 0 mm 3 m/s 752 mmHg 72%
    19:00 -4°C° 0 mm 3 m/s 752 mmHg 73%
    20:00 -4°C° 0 mm 3 m/s 753 mmHg 73%
    21:00 -4°C° 0 mm 3 m/s 754 mmHg 74%
    22:00 -5°C° 0 mm 3 m/s 754 mmHg 74%
    23:00 -5°C° 0 mm 3 m/s 755 mmHg 74%

    30 Octobre, Mardi

    Heure Température Précipitation Vent Pression Humidité
    00:00 -5°C° 0 mm 3 m/s 755 mmHg 74%
    01:00 -5°C° 0 mm 3 m/s 756 mmHg 73%
    02:00 -5°C° 0 mm 3 m/s 756 mmHg 74%
    03:00 -5°C° 0 mm 3 m/s 757 mmHg 74%
    04:00 -5°C° 0 mm 3 m/s 757 mmHg 74%
    05:00 -5°C° 0 mm 3 m/s 758 mmHg 74%
    06:00 -4°C° 0 mm 2 m/s 758 mmHg 74%
    07:00 -4°C° 0 mm 2 m/s 759 mmHg 74%
    08:00 -5°C° 0 mm 3 m/s 759 mmHg 69%
    09:00 -4°C° 0 mm 3 m/s 759 mmHg 64%
    10:00 -4°C° 0 mm 3 m/s 760 mmHg 59%
    11:00 -2°C° 0 mm 3 m/s 760 mmHg 58%
    12:00 -2°C° 0 mm 3 m/s 760 mmHg 56%
    13:00 -1°C° 0 mm 2 m/s 760 mmHg 54%
    14:00 -2°C° 0 mm 2 m/s 760 mmHg 58%
    15:00 -1°C° 0 mm 1 m/s 761 mmHg 62%
    16:00 -1°C° 0 mm 1 m/s 761 mmHg 66%
    17:00 -2°C° 0 mm 1 m/s 761 mmHg 68%
    18:00 -2°C° 0 mm 1 m/s 761 mmHg 70%
    19:00 -3°C° 0 mm 1 m/s 761 mmHg 73%
    20:00 -3°C° 0 mm 1 m/s 761 mmHg 74%
    21:00 -3°C° 0 mm 1 m/s 761 mmHg 76%
    22:00 -3°C° 0 mm 1 m/s 761 mmHg 78%
    23:00 -4°C° 0 mm 1 m/s 761 mmHg 80%
    Voir plus